Location: Cambridge
(43.3830°N, 80.3170°W)
Time: 10:50:12
(UTC-05:00)

Envisat - Pass Details

Date: 29 October 2019
Orbit: 764 x 766 km, 98.1° (Epoch: 14 November)

Event Time Altitude Azimuth Distance (km) Brightness Sun altitude
Rises 06:41:20 0° 37° (NE) 3,238 6.7 -13.4°
Reaches altitude 10° 06:46:52 10° 86° (E) 2,302 6.9 -12.4°
Maximum altitude 06:46:54 10° 86° (E) 2,302 6.9 -12.4°
Drops below altitude 10° 06:47:00 10° 88° (E) 2,302 6.9 -12.4°
Sets 06:52:25 0° 136° (SE) 3,218 7.1 -11.4°
